Location: Zagreb
(45.8000°N, 16.0000°E)
Time: 00:08:06
(UTC+02:00)

Envisat - Visible Passes

Search period start: 22 April 2024 00:00
Search period end: 02 May 2024 00:00
Orbit: 762 x 764 km, 98.3° (Epoch: 21 April)

Date Brightness Start Highest point End Pass type
(mag) Time Alt. Az. Time Alt. Az. Time Alt. Az.
22 Apr 5.4 03:05:31 10° NE 03:08:46 17° E 03:11:59 10° SE visible
22 Apr 3.0 04:43:09 10° N 04:48:12 66° WNW 04:53:13 10° SSW visible
23 Apr 3.5 04:05:51 10° NNE 04:10:52 59° E 04:15:42 11° S visible
24 Apr 4.7 03:29:00 10° NE 03:33:20 27° E 03:37:38 10° SSE visible
24 Apr 3.6 05:07:41 10° N 05:12:25 40° WNW 05:17:07 10° SW visible
25 Apr 5.6 02:53:21 10° ENE 02:55:35 13° E 02:57:48 10° ESE visible
25 Apr 3.0 04:30:07 10° NNE 04:35:13 85° WNW 04:40:17 10° SSW visible
26 Apr 3.9 03:52:56 10° NNE 03:57:49 45° E 04:02:39 10° S visible
27 Apr 5.1 03:16:21 10° NE 03:20:12 21° E 03:24:02 10° SE visible
27 Apr 3.3 04:54:32 10° N 04:59:28 52° WNW 05:04:22 10° SW visible
28 Apr 3.1 04:17:06 10° NNE 04:22:12 75° ESE 04:27:15 10° S visible
29 Apr 4.4 03:40:05 10° NNE 03:44:43 35° E 03:49:19 10° SSE visible
30 Apr 5.4 03:03:51 10° NE 03:07:02 16° E 03:10:11 10° SE visible
30 Apr 3.0 04:41:26 10° N 04:46:29 67° WNW 04:51:30 10° SSW visible
01 May 3.5 04:04:07 10° NNE 04:09:08 58° E 04:14:07 10° S visible
